Regional Weather Roundup
Issued by NWS

Home | Current Version | Previous Version | Text Only | Print | Product List | Glossary Off
Versions: 1 2 3 4 5 6 7 8 9 10 11 12 13 14 15 16 17 18 19 20 21 22 23 24 25 26 27 28 29 30 31 32 33 34 35 36 37 38 39 40 41 42 43 44 45 46 47 48 49 50

000
ASUS43 KMPX 201601
RWRMN
WEATHER ROUNDUP FOR MINNESOTA
NATIONAL WEATHER SERVICE TWIN CITIES/CHANHASSEN MN
1100 AM CDT MON OCT 20 2014


NOTE: "FAIR" INDICATES FEW OR NO CLOUDS BELOW 12,000 FEET WITH NO
SIGNIFICANT WEATHER AND/OR OBSTRUCTIONS TO VISIBILITY. N/A MEANS
CURRENT SKY AND/OR WEATHER CONDITIONS ARE NOT AVAILABLE.

MNZ060>063-068>070-201700-
   Twin Cities Metro

CITY           SKY/WX    TMP DP  RH WIND       PRES   REMARKS
TWIN CITIES    SUNNY     57  42  57 NW12      30.00S
ST PAUL        SUNNY     56  43  61 NW9       30.01S
CRYSTAL        SUNNY     59  43  55 N12       30.00S
BLAINE         SUNNY     57  45  62 NW13G18   30.00S
LAKEVILLE      SUNNY     55  43  62 N9        30.00S
EDEN PRAIRIE   SUNNY     57  43  59 N9        30.00S
SOUTH ST PAUL  SUNNY     58  42  55 N8        30.00S
LAKE ELMO      FAIR      55  45  67 NW7       30.00S
$$
MNZ001>005-007-008-013>017-022>024-027-028-201700-
   Northwest Minnesota

CITY           SKY/WX    TMP DP  RH WIND       PRES   REMARKS
BEMIDJI        MOSUNNY   47  39  76 N9        30.04S
HALLOCK        MOSUNNY   43  41  93 NE3       30.09R
ROSEAU         CLOUDY    45  39  81 N7        30.07S
WARROAD        CLOUDY    45  39  81 N7        30.07S
THIEF RVR FALL CLOUDY    41  39  93 N9        30.08S
CROOKSTON      SUNNY     46  41  81 NE7       30.09R
FOSSTON        SUNNY     48  39  71 N8        30.07R
DETROIT LAKES  SUNNY     50  43  76 NW8       30.06S
MOORHEAD       SUNNY     48  45  87 N5        30.08S
PARK RAPIDS    SUNNY     51  41  68 N13       30.03S
MAHNOMEN       FAIR      45  40  81 N3        30.06R
$$
MNZ006-009>011-018-025>026-201700-
   North Central Minnesota

CITY           SKY/WX    TMP DP  RH WIND       PRES   REMARKS
BAUDETTE       CLOUDY    46  39  76 N8        30.05R
FLAG ISLAND    CLOUDY    45  36  70 N10       30.05R
INTL FALLS     CLOUDY    45  36  70 N13       30.02R
WASKISH        CLOUDY    43  43 100 CALM      30.05R
BIG FORK       CLOUDY    45  41  87 N5        30.02S
LONGVILLE      CLOUDY    48  41  76 NW7       30.03R
GRAND RAPIDS   CLOUDY    45  39  81 NW10      30.01R
CRANE LAKE     CLOUDY    43  39  87 NW8       30.01S
ORR            CLOUDY    46  37  71 NW7       29.97S
COOK           CLOUDY    45  39  81 NW10      29.99S
WALKER         FAIR      47  39  73 N3        30.03R
$$
MNZ012-019>021-037-201700-
   Northeast Minnesota

CITY           SKY/WX    TMP DP  RH WIND       PRES   REMARKS
DULUTH         CLOUDY    48  42  80 NW10      29.97S
ELY            CLOUDY    46  37  71 N8        29.97R
HIBBING        CLOUDY    48  37  65 N16       29.99R
EVELETH        CLOUDY    45  41  87 NW9       29.99R
DULUTH HARBOR  CLOUDY    52  45  76 NW9       29.98S
TWO HARBORS    CLOUDY    52  34  50 W3        29.95R
SILVER BAY     SUNNY     54  39  58 W6        29.94R
GRAND MARAIS     N/A     52  40  63 VRB3      29.92R
G MARAIS ARPRT CLOUDY    45  37  76 N9        29.92R HAZE
$$
MNZ029>031-032-039>041-046>048-054>057-064-201700-
   West Central Minnesota

CITY           SKY/WX    TMP DP  RH WIND       PRES   REMARKS
FERGUS FALLS   SUNNY     52  39  62 CALM      30.07S
WHEATON        SUNNY     52  41  66 W6        30.09S
MORRIS         SUNNY     54  43  66 NW6       30.05F
ALEXANDRIA     SUNNY     55  43  63 N9        30.05S
ELBOW LAKE     FAIR      50  41  71 NW5       30.06R
WADENA         SUNNY     52  43  71 N8        30.04R
GLENWOOD       SUNNY     57  45  62 N9        30.05R
APPLETON       SUNNY     57  43  58 NW7       30.06F
BENSON         SUNNY     54  43  66 N9        30.06S
ORTONVILLE     SUNNY     55  41  58 NW5       30.07S
MADISON        SUNNY     59  43  55 NW6       30.07S
WILLMAR        FAIR      57  43  58 NW8       30.06S
$$
MNZ033>034-036-042>043-049>051-058-059-201700-
   Central Minnesota

CITY           SKY/WX    TMP DP  RH WIND       PRES   REMARKS
ST CLOUD       SUNNY     58  43  57 NW9       30.02S
SAUK CENTRE    FAIR      53  43  66 NW8       30.04S
PAYNESVILLE    SUNNY     53  42  66 W10       30.04S
AITKIN         CLOUDY    52  43  71 N9        30.01R
PINE RIVER     PTSUNNY   50  41  71 N9        30.06R
BRAINERD       SUNNY     50  41  71 N13       30.03R
STAPLES        SUNNY     52  41  66 N10       30.03S
LONG PRAIRIE   FAIR      52  43  71 NW7       30.04S
LITTLE FALLS   SUNNY     54  41  62 NW10G16   30.02S
LITCHFIELD     SUNNY     57  46  67 NW9       30.03F
BUFFALO        SUNNY     56  42  59 N9        30.02S
MAPLE LAKE     SUNNY     57  46  67 NW9       30.03S
$$
MNZ037-044-045-052-053-201700-
   East Central Minnesota

CITY           SKY/WX    TMP DP  RH WIND       PRES   REMARKS
PRINCETON      SUNNY     57  45  62 NW13      30.01S
MORA           SUNNY     54  41  62 N9        30.02R
CAMBRIDGE      SUNNY     57  43  58 NW10G16   29.98S
RUSH CITY      SUNNY     54  42  66 N7        30.00S
MOOSE LAKE     CLOUDY    50  41  71 NW7       29.98S
HINCKLEY       PTSUNNY   52  43  71 N10       29.99S
CLOQUET        CLOUDY    48  41  76 NW8       29.98R
MCGREGOR       CLOUDY    46  43  87 NW9       30.01S
$$
MNZ071>073-080-081-089-090-097-098-201700-
   Southwest Minnesota

CITY           SKY/WX    TMP DP  RH WIND       PRES   REMARKS
MONTEVIDEO     SUNNY     57  45  62 N5        30.07F
GRANITE FALLS  SUNNY     56  42  61 NW7       30.08S
CANBY          SUNNY     57  43  58 NW8       30.09S
MARSHALL       SUNNY     57  39  51 NW12      30.07S
REDWOOD FALLS  SUNNY     56  41  57 N7        30.05S
OLIVIA         SUNNY     55  41  58 NW7       30.04F
PIPESTONE      SUNNY     55  41  58 N5        30.08F
WINDOM         SUNNY     61  43  51 NW9       30.06S
WORTHINGTON    SUNNY     59  39  47 N10       30.08F
JACKSON        SUNNY     61  39  44 NW10      30.06F
TRACY          SUNNY     60  42  51 NW7       30.07F
SLAYTON        SUNNY     59  40  49 NW8       30.09S
$$
MNZ065>067-074>077-082>085-091>093-201700-
   South Central Minnesota

CITY           SKY/WX    TMP DP  RH WIND       PRES   REMARKS
MANKATO        SUNNY     55  39  54 NW12      30.03S
NEW ULM        SUNNY     55  43  62 NW9       30.04S
ST JAMES       SUNNY     59  41  51 NW9       30.06R
FAIRMONT       SUNNY     61  37  41 NW12      30.04S
GLENCOE        SUNNY     58  46  65 N7        30.02S
FARIBAULT      SUNNY     57  45  62 N7        30.01S
OWATONNA       SUNNY     55  45  67 NW7       30.01S
WASECA         SUNNY     55  39  54 NW8       30.03S
ALBERT LEA     SUNNY     57  43  58 NW8       30.01S
$$
MNZ078>079-086>088-094>096-201700-
   Southeast Minnesota

CITY           SKY/WX    TMP DP  RH WIND       PRES   REMARKS
ROCHESTER      SUNNY     57  45  64 NW7       30.00R
RED WING       SUNNY     57  43  58 NW5       29.97F
STANTON        SUNNY     58  44  60 NW7       29.99S
DODGE CENTER   SUNNY     55  45  67 N7        30.00S
WINONA         SUNNY     55  45  67 N9        29.97S
AUSTIN         SUNNY     55  43  62 N10       30.00S
PRESTON        SUNNY     55  44  68 NW9       29.99S
$$
ABBREVIATIONS USED IN REMARKS
   TC - TEMPERATURES IN CELSIUS
  WCI - WIND CHILL INDEX
   HX - HEAT INDEX
  VSB - VISIBILITY
$$


USA.gov is the U.S. government's official web portal to all federal, state and local government web resources and services.